Tracking 34305 objects as of 6-Jun-2026
HD Live streaming from Space Station
objects crossing your sky now

COSMOS 339

Track COSMOS 339 now!
10-day predictions
COSMOS 339 is classified as:


NORAD ID: 4386
Int'l Code: 1970-036D
Perigee: 1,451.8 km
Apogee: 1,475.8 km
Inclination: 74.0 °
Period: 115.0 minutes
Semi major axis: 7834 km
RCS: 0.7395 m2 (medium)
Launch date: April 25, 1970
Source: Commonwealth of Independent States (former USSR) (CIS)
Launch site: PLESETSK MISSILE AND SPACE COMPLEX (PKMTR)
Your satellite tracking list
Your tracking list is empty




NASA's NSSDC Master Catalog

Two Line Element Set (TLE):
1 04386U 70036D   26156.44478765 -.00000016  00000-0  23759-6 0  9992
2 04386  74.0260 156.0098 0015283 173.2924 302.1509 12.51876000563934
Source of the keplerian elements: AFSPC